Dublin, VA

8:58 AM EDT on July 23, 2017 (GMT -0400)
New River Valley

Weather History for KPSK - December, 2011

Change the Weather History Date:

Friday, December 2, 2011

  Actual Average (KBCB) Record (KBCB)
Temperature  
Mean Temperature 39 °F -  
Max Temperature 55 °F 47 °F 66 °F (1970)
Min Temperature 23 °F 25 °F 8 °F (1976)
Degree Days  
Heating Degree Days 26    
Moisture  
Dew Point 21 °F    
Average Humidity 56    
Maximum Humidity 100    
Minimum Humidity 18    
Precipitation  
Precipitation 0.00 in - - ()
Sea Level Pressure  
Sea Level Pressure 30.40 in    
Wind  
Wind Speed 2 mph (West)    
Max Wind Speed 14 mph    
Max Gust Speed 17 mph    
Visibility 10 miles    
Events      
Averages and records for this station are not official NWS values.
T = Trace of Precipitation, MM = Missing Value Source: NWS Daily Summary

Daily Weather History Graph

Daily Weather History Graph

Search for Another Location

Airport or City:

Trip Planner

Search our weather history database for the weather conditions in past years. The results will help you decide how hot, cold, wet, or windy it might be!

Date:

Astronomy

Dec. 02, 2011 Rise Set
Actual Time 7:18 AM EST 5:05 PM EST
Civil Twilight 6:49 AM EST 5:34 PM EST
Nautical Twilight 6:17 AM EST 6:06 PM EST
Astronomical Twilight 5:46 AM EST 6:37 PM EST
Moon 12:35 PM EST (12/2) No Moon Set
Length of Visible Light 10h 44m
Length of Day
9h 47m
First Quarter, 53% of the Moon is Illuminated
Dec 2
First Quarter
Dec 10
Full
Dec 17
Last Quarter
Dec 24
New
Jan 1
First Quarter

Hourly Weather History & Observations

Time (EST) Temp. Windchill Dew Point Humidity Pressure Visibility Wind Dir Wind Speed Gust Speed Precip Events Conditions
12:15 AM 28.4 °F - 24.8 °F 86% 30.35 in 10.0 mi Calm Calm - N/A   Clear
12:35 AM 30.2 °F - 24.8 °F 80% 30.35 in 10.0 mi Calm Calm - N/A   Clear
12:55 AM 28.4 °F - 24.8 °F 86% 30.34 in 10.0 mi Calm Calm - N/A   Clear
1:15 AM 30.2 °F 25.4 °F 26.6 °F 86% 30.34 in 10.0 mi SSW 4.6 mph - N/A   Clear
1:55 AM 30.2 °F - 26.6 °F 86% 30.34 in 10.0 mi Calm Calm - N/A   Clear
2:15 AM 28.4 °F - 24.8 °F 86% 30.34 in 10.0 mi Calm Calm - N/A   Clear
2:35 AM 28.4 °F - 24.8 °F 86% 30.35 in 10.0 mi Calm Calm - N/A   Clear
2:55 AM 26.6 °F - 24.8 °F 93% 30.35 in 10.0 mi Calm Calm - N/A   Clear
3:15 AM 26.6 °F - 23.0 °F 86% 30.34 in 10.0 mi Calm Calm - N/A   Clear
3:35 AM 26.6 °F - 24.8 °F 93% 30.35 in 10.0 mi Calm Calm - N/A   Clear
3:55 AM 26.6 °F - 24.8 °F 93% 30.35 in 10.0 mi Calm Calm - N/A   Clear
4:15 AM 26.6 °F 22.6 °F 24.8 °F 93% 30.35 in 10.0 mi South 3.5 mph - N/A   Clear
4:35 AM 26.6 °F - 24.8 °F 93% 30.35 in 10.0 mi Calm Calm - N/A   Clear
4:55 AM 24.8 °F - 23.0 °F 93% 30.35 in 10.0 mi Calm Calm - N/A   Clear
5:15 AM 24.8 °F - 23.0 °F 93% 30.35 in 10.0 mi Calm Calm - N/A   Clear
5:35 AM 24.8 °F - 24.8 °F 100% 30.36 in 10.0 mi Calm Calm - N/A   Clear
5:55 AM 24.8 °F - 24.8 °F 100% 30.36 in 10.0 mi Calm Calm - N/A   Clear
6:15 AM 24.8 °F - 24.8 °F 100% 30.37 in 10.0 mi Calm Calm - N/A   Clear
6:35 AM 26.6 °F - 24.8 °F 93% 30.37 in 10.0 mi Calm Calm - N/A   Clear
6:55 AM 23.0 °F - 21.2 °F 93% 30.38 in 10.0 mi Calm Calm - N/A   Clear
7:15 AM 24.8 °F 19.1 °F 24.8 °F 100% 30.38 in 10.0 mi SSW 4.6 mph - N/A   Clear
7:35 AM 26.6 °F - 24.8 °F 93% 30.38 in 10.0 mi Calm Calm - N/A   Clear
7:55 AM 26.6 °F - 26.6 °F 100% 30.39 in 10.0 mi Calm Calm - N/A   Clear
8:15 AM 26.6 °F - 24.8 °F 93% 30.40 in 7.0 mi Calm Calm - N/A   Clear
8:35 AM 28.4 °F - 26.6 °F 93% 30.40 in 10.0 mi Calm Calm - N/A   Clear
9:15 AM 37.4 °F 34.9 °F 30.2 °F 75% 30.41 in 10.0 mi South 3.5 mph - N/A   Clear
9:55 AM 42.8 °F - 28.4 °F 57% 30.41 in 10.0 mi Calm Calm - N/A   Clear
10:15 AM 46.4 °F 45.2 °F 28.4 °F 50% 30.41 in 10.0 mi West 3.5 mph - N/A   Clear
10:35 AM 48.2 °F - 24.8 °F 40% 30.41 in 10.0 mi West 8.1 mph - N/A   Clear
10:55 AM 50.0 °F - 21.2 °F 32% 30.41 in 10.0 mi West 10.4 mph - N/A   Clear
11:15 AM 50.0 °F - 19.4 °F 30% 30.41 in 10.0 mi West 13.8 mph - N/A   Clear
11:35 AM 51.8 °F - 21.2 °F 30% 30.41 in 10.0 mi West 13.8 mph 17.3 mph N/A   Clear
11:55 AM 51.8 °F - 21.2 °F 30% 30.41 in 10.0 mi West 12.7 mph 16.1 mph N/A   Clear
12:15 PM 53.6 °F - 19.4 °F 26% 30.40 in 10.0 mi West 9.2 mph - N/A   Clear
12:35 PM 53.6 °F - 19.4 °F 26% 30.40 in 10.0 mi West 6.9 mph - N/A   Clear
12:55 PM 53.6 °F - 19.4 °F 26% 30.40 in 10.0 mi West 6.9 mph - N/A   Clear
1:15 PM 55.4 °F - 15.8 °F 21% 30.39 in 10.0 mi WNW 6.9 mph - N/A   Clear
1:35 PM 55.4 °F - 15.8 °F 21% 30.39 in 10.0 mi NW 9.2 mph - N/A   Clear
1:55 PM 55.4 °F - 14.0 °F 20% 30.38 in 10.0 mi WNW 9.2 mph 16.1 mph N/A   Clear
2:15 PM 55.4 °F - 12.2 °F 18% 30.38 in 10.0 mi West 10.4 mph - N/A   Clear
2:35 PM 55.4 °F - 12.2 °F 18% 30.38 in 10.0 mi West 9.2 mph - N/A   Clear
2:55 PM 55.4 °F - 14.0 °F 20% 30.38 in 10.0 mi West 6.9 mph - N/A   Clear
3:15 PM 55.4 °F - 12.2 °F 18% 30.38 in 10.0 mi West 9.2 mph - N/A   Clear
3:35 PM 55.4 °F - 15.8 °F 21% 30.38 in 10.0 mi WNW 10.4 mph - N/A   Clear
3:55 PM 55.4 °F - 17.6 °F 23% 30.39 in 10.0 mi West 6.9 mph - N/A   Clear
4:15 PM 53.6 °F - 15.8 °F 22% 30.39 in 10.0 mi West 5.8 mph - N/A   Clear
4:35 PM 51.8 °F - 17.6 °F 26% 30.40 in 10.0 mi WNW 3.5 mph - N/A   Clear
4:55 PM 50.0 °F - 15.8 °F 26% 30.40 in 10.0 mi Calm Calm - N/A   Clear
5:15 PM 48.2 °F - 17.6 °F 30% 30.41 in 10.0 mi Calm Calm - N/A   Clear
5:35 PM 48.2 °F - 17.6 °F 30% 30.41 in 10.0 mi Calm Calm - N/A   Clear
5:55 PM 48.2 °F - 15.8 °F 27% 30.42 in 10.0 mi Calm Calm - N/A   Clear
6:15 PM 46.4 °F - 17.6 °F 32% 30.43 in 10.0 mi Calm Calm - N/A   Clear
6:35 PM 44.6 °F 43.1 °F 19.4 °F 37% 30.44 in 10.0 mi NW 3.5 mph - N/A   Clear
6:55 PM 44.6 °F 42.2 °F 17.6 °F 34% 30.45 in 10.0 mi NW 4.6 mph - N/A   Clear
7:15 PM 42.8 °F - 19.4 °F 39% 30.46 in 10.0 mi Calm Calm - N/A   Clear
7:35 PM 46.4 °F - 15.8 °F 29% 30.47 in 10.0 mi Calm Calm - N/A   Clear
7:55 PM 44.6 °F - 17.6 °F 34% 30.48 in 10.0 mi Calm Calm - N/A   Clear
8:15 PM 42.8 °F - 19.4 °F 39% 30.48 in 10.0 mi Calm Calm - N/A   Clear
8:35 PM 41.0 °F - 19.4 °F 42% 30.49 in 10.0 mi Calm Calm - N/A   Clear
8:55 PM 39.2 °F - 21.2 °F 49% 30.50 in 10.0 mi Calm Calm - N/A   Clear
9:15 PM 37.4 °F - 21.2 °F 52% 30.50 in 10.0 mi Calm Calm - N/A   Clear
9:35 PM 37.4 °F - 21.2 °F 52% 30.51 in 10.0 mi Calm Calm - N/A   Clear
9:55 PM 37.4 °F 34.9 °F 21.2 °F 52% 30.50 in 10.0 mi WNW 3.5 mph - N/A   Clear
10:15 PM 39.2 °F - 21.2 °F 49% 30.51 in 10.0 mi Calm Calm - N/A   Clear
10:35 PM 39.2 °F - 21.2 °F 49% 30.51 in 10.0 mi Calm Calm - N/A   Clear
10:55 PM 37.4 °F 34.9 °F 21.2 °F 52% 30.51 in 10.0 mi NW 3.5 mph - N/A   Clear
11:15 PM 35.6 °F - 21.2 °F 56% 30.51 in 10.0 mi Calm Calm - N/A   Clear
11:35 PM 33.8 °F - 23.0 °F 65% 30.52 in 10.0 mi Calm Calm - N/A   Clear
11:55 PM 33.8 °F 29.6 °F 24.8 °F 70% 30.53 in 10.0 mi SSW 4.6 mph - N/A   Clear